www.pogodaiklimat.ru

Погода и климат >> Архив погоды >> Корея >> Масан


ПОГОДА в Масане

  • Прогноз погоды в Масане
  • Монитор погоды в Масане

АРХИВ ПОГОДЫ в Масане

Время (UTC), дата Ветер
(напр.,м/с)
 
Видим.   Явления Облачность Т
(С)
Тd
(С)
f
(%)
Тe
(С)
Тes
(С)
Комфортность P
(гПа)
Po
(гПа)
Тmin
(С)
Tmax
(С)
R
(мм)
R24
(мм)
S
(см)
21 18.08 штиль 0 9000 м дымка 8/0
[Ci fib]
+23.3 +19.8 81 +30 +30 очень
душно
1008.6 1004.3
00 19.08 СВ 3 11 км 8/0
[Ac trans Ci sp]
+26.8 +20.8 70 +34 +39 очень
душно
1009.4 1005.1 +23.1
03 19.08 В 3 8000 м мгла 8/0
[Ci sp]
+30.7 +22.3 61 +40 +53 опасность
солнечного
удара
1009.3 1005.1
06 19.08 Ю 5 8000 м мгла 8/0
[Ci sp]
+28.8 +22.7 70 +38 +44 очень
душно
1008.3 1004.1
09 19.08 Ю 2 12 км 8/0
[Ci sp]
+27.6 +22.0 72 +36 +37 очень
душно
1008.4 1004.2
12 19.08 9000 м дымка 9/3 1000 м
[Sc Ci sp]
+25.6 +22.0 81 1009.6 1005.3 +31.0
15 19.08 штиль 0 5000 м дымка 6/0
[Ci fib]
+24.6 +21.7 84 +31 +31 очень
душно
1009.8 1005.5
18 19.08 В 2 4000 м дымка 8/8 1000 м
[Sc]
+25.0 +21.7 82 +32 +32 очень
душно
1009.6 1005.3
21 19.08 штиль 0 6000 м дымка 8/4 600 м
[Sc Ac trans]
+24.4 +21.1 82 +31 +31 очень
душно
1010.2 1005.9
00 20.08 СВ 4 9000 м дымка 9/9 600 м
[Sc]
+26.5 +21.4 74 +34 +34 очень
душно
1010.8 1006.5 +24.2
03 20.08 17 км н/о +29.1 +19.9 58 +35 +41 очень
душно
1009.5 1005.3
06 20.08 ЮВ 2 20 км 10/5 1000 м
[Sc As op]
+29.2 +20.0 58 +36 +37 очень
душно
1009.0 1004.8
09 20.08 18 км н/о +28.8 +20.5 61 +36 +36 очень
душно
1008.9 1004.7
12 20.08 СВ 4 20 км 9/9 1000 м
[Sc]
+26.7 +19.3 64 +32 +32 очень
душно
1010.2 1005.9 +30.1
15 20.08 С 3 20 км 9// 1500 м
[Sc]
+26.0 +19.3 67 +31 +31 очень
душно
1009.6 1005.3
18 20.08 СВ 1 20 км 9/9 1000 м
[Sc]
+25.4 +19.7 71 +31 +31 очень
душно
1008.9 1004.6
21 20.08 16 км н/о +24.9 +19.9 74 +30 +30 душно 1008.9 1004.6
00 21.08 С 3 18 км 9/9 600 м
[Sc]
+26.4 +20.4 70 +33 +33 очень
душно
1009.9 1005.6 +24.6
03 21.08 В 1 19 км в посл. час дождь 10/10 600 м
[Sc As op]
+28.0 +21.7 69 +36 +36 очень
душно
1009.6 1005.4
06 21.08 Ю 4 16 км слаб. дождь 10/8 600 м
[Sc As op]
+27.1 +22.9 78 +36 +36 очень
душно
1008.7 1004.5 0.1
09 21.08 Ю 1 7000 м слаб. дождь 10/6 300 м
[Frnb As op]
+25.4 +23.8 91 +35 +35 очень
душно
1008.7 1004.4
12 21.08 Ю 3 5000 м в посл. час дождь 10/5 200 м
[Sc As op]
+25.3 +24.2 94 +35 +35 очень
душно
1009.6 1005.3 +28.5 11
15 21.08 штиль 0 13 км слаб. дождь 10/10 300 м
[Sc As op]
+25.0 +23.9 94 +34 +34 очень
душно
1008.7 1004.4
18 21.08 Ю 6 15 км слаб. дождь 10/9 300 м
[Frnb As op]
+26.1 +24.1 89 +36 +36 очень
душно
1007.1 1002.8 5
21 21.08 Ю 2 7000 м дождь 10// 300 м
[Frnb As op]
+25.9 +23.9 89 +36 +36 очень
душно
1006.6 1002.3
00 22.08 Ю 2 20 км дождь 10/8 300 м
[Sc As op]
+25.9 +23.9 89 +36 +36 очень
душно
1006.3 1002.0 +25.0 33
03 22.08 Ю 2 17 км слаб. дождь 10/10 300 м
[Frnb Ns]
+26.1 +24.3 90 +36 +36 очень
душно
1004.8 1000.5
06 22.08 ЮЗ 2 20 км 10/5 600 м
[Sc As op]
+29.3 +25.0 78 +42 +44 опасность
перегрева
1004.4 1000.2
09 22.08 20 км н/о +27.5 +24.7 85 +39 +40 очень
душно
1005.2 1001.0
12 22.08 Ю 2 14 км 8/0
[Ac trans Ci sp]
+25.8 +24.2 91 +36 +36 очень
душно
1007.1 1002.8 +30.5 9
15 22.08 штиль 0 12 км 8/0
[Ci sp]
+25.2 +23.4 90 +34 +34 очень
душно
1006.9 1002.6
18 22.08 С 1 6000 м дымка 4/0
[Ci fib]
+23.2 +21.4 90 +31 +31 очень
душно
1007.4 1003.1
21 22.08 штиль 0 7000 м дымка 8/0
[Ac trans]
+23.1 +20.8 87 +31 +31 очень
душно
1007.9 1003.6
00 23.08 З 1 9000 м дымка 9/1 1000 м
[Sc Ac trans]
+24.3 +21.4 84 +31 +35 очень
душно
1008.8 1004.5 +22.6 0.0
03 23.08 штиль 0 19 км в посл. час дождь 10/0
[As op]
+26.0 +18.4 63 +31 +50 очень
душно
1009.1 1004.8
06 23.08 В 2 20 км 8/0
[Ac trans Ci sp]
+28.4 +19.8 60 +35 +43 очень
душно
1008.1 1003.9
09 23.08 Ю 2 13 км 6/0
[Cc]
+26.6 +21.1 72 +34 +34 очень
душно
1008.2 1003.9
12 23.08 З 1 14 км 6/0
[Ci fib]
+23.1 +20.0 83 +30 +30 очень
душно
1009.5 1005.2 +28.9 0.0
15 23.08 штиль 0 10 км ясно +21.4 +19.1 87 +26 +26 душно 1010.0 1005.7
18 23.08 З 1 14 км ясно +21.3 +17.8 80 +25 +25 комфорт 1009.9 1005.6
21 23.08 штиль 0 13 км 8/0
[Ci fib]
+19.6 +17.0 85 +22 +22 комфорт 1010.3 1006.0
00 24.08 В 2 20 км 6/0
[Ac trans Ci fib]
+23.6 +15.6 61 +27 +33 жарко 1011.2 1006.9 +19.0 0.0
03 24.08 СВ 1 20 км 8/0
[Ac trans]
+28.2 +17.0 51 +32 +41 душно 1010.8 1006.6
06 24.08 ЮВ 1 20 км 8/1 1500 м
[Sc Ac trans Ci sp]
+27.7 +18.1 56 +32 +40 очень
душно
1009.9 1005.7
09 24.08 З 1 20 км в посл. час дождь 9/1 1000 м
[Sc Ci sp]
+25.4 +19.7 71 +31 +32 очень
душно
1010.2 1005.9
12 24.08 СЗ 1 20 км 8/0
[Ac trans]
+24.1 +17.8 68 +28 +28 душно 1011.6 1007.3 +29.0 0.0
15 24.08 штиль 0 20 км 3/0
[Ac trans]
+22.5 +18.2 77 +28 +28 душно 1011.8 1007.5
18 24.08 С 2 20 км 5/0
[Ac trans]
+21.5 +18.0 80 +26 +26 душно 1012.0 1007.7
21 24.08 С 2 20 км 8/0
[Ac trans]
+21.6 +17.9 79 +26 +26 душно 1012.4 1008.1
00 25.08 штиль 0 18 км слаб. дождь 10/6 1000 м
[Sc As op]
+21.7 +19.4 87 +27 +27 душно 1013.9 1009.5 +20.7 0.0
03 25.08 штиль 0 20 км слаб. дождь 10/4 600 м
[Sc As op]
+24.6 +19.4 73 +30 +33 очень
душно
1013.5 1009.2
06 25.08 ЮВ 2 20 км 8/0
[Ci sp]
+26.4 +18.7 63 +31 +41 душно 1013.0 1008.7
09 25.08 Ю 2 20 км 6/0
[Ac trans]
+25.3 +18.9 68 +30 +31 душно 1012.7 1008.4
12 25.08 З 1 18 км 8/0
[Ac trans]
+22.9 +19.4 81 +29 +29 очень
душно
1013.9 1009.6 +26.8 0.2
15 25.08 СЗ 1 10 км ясно +21.3 +19.2 88 +26 +26 душно 1013.8 1009.4
18 25.08 штиль 0 8000 м дымка ясно +20.8 +19.0 89 +25 +25 комфорт 1013.2 1008.8

 

Местоположение метеостанции Масан (Корея): широта 35.18 долгота 128.56 высота над уровнем моря 4 м.

В архиве по умолчанию представлена погода в Масане за последнюю неделю. Архивные данные за месяц целиком и за предыдущие месяцы, начиная с января 2011 года, Вы можете получить, выбрав интересующий диапазон дат из раскрывающегося списка и нажав кнопку "Ввод!".


*Определитесь, кто Вы:
робот инопланетянин человек

Внимание! Время в таблицах - всемирное. Для получения местного времени необходимо прибавить поправку, которая равна 9 ч.

Смотрите также архив погоды в соседних городах и на ближайших метеорологических станциях:

Погода в Тхонъёне (Корея) (39 км)
Погода в Чинджу (Корея) (41 км)
Погода в Пусане (Корея) (44 км)
Погода в Тэгу (Корея) (78 км)
Погода в Ульсане (Корея) (80 км)
Погода в Чинхэгу (Корея) (81 км)
Погода в Йосу (Корея) (89 км)
Погода в Куми (Корея) (107 км)
Погода в Намвоне (Корея) (114 км)
Погода в Пхохане (Корея) (120 км)

Пояснения к столбцам:

Ветер - указаны скорость ветра в м/с - средняя за 10 мин, порывы в срок и между сроками (в фигурных скобках) и направление, откуда дует ветер: С - северный, СВ - северо-восточный, В - восточный, ЮВ - юго-восточный, Ю - южный, ЮЗ - юго-западный, З - западный, СЗ - северо-западный.
Видимость - горизонтальная дальность видимости в метрах или километрах. При видимости от 1 до 10 км при отсутствии осадков обычно наблюдается дымка, при ухудшении видимости до 1 км и менее - туман. В сухую погоду видимость может ухудшаться дымом, пылью или мглою.
Явления - указаны атмосферные явления, наблюдавшиеся в срок или в последний час перед сроком; фигурными скобками обозначены явления, наблюдавшиеся между сроками (за 1-3 часа до срока); квадратными скобками обозначены град или гололедные отложения с указанием их диаметра в мм.
Облачность - указаны через наклонную черту общая и нижняя облачность в баллах и высота нижней границы облаков в метрах; квадратными скобками обозначены формы облаков: Ci - перистые, Cs - перисто-слоистые, Cc - перисто-кучевые, Ac - высококучевые, As - высокослоистые, Sc - слоисто-кучевые, Ns - слоисто-дождевые, Cu - кучевые, Cb - кучево-дождевые. Подробнее классификацию облаков см. в Атласе облаков (PDF).
T - Температура воздуха - температура, измеренная на высоте 2 м над землей.
Td - Температура точки росы - температура, при понижении до которой содержащийся в воздухе водяной пар достигнет насыщения.
f - Относительная влажность воздуха - влажноcть воздуха, измеренная на высоте 2 м над землей.
Te - Эффективная температура - температура, которую ощущает одетый по сезону человек в тени. Характеристика душности погоды. При расчете учитывается влияние влажности воздуха и скорости ветра на теплоощущения человека.
Tes - Эффективная температура на солнце - температура, которую ощущает человек, с поправкой на солнечный нагрев. Характеристика знойности погоды. Зависит от высоты солнца над горизонтом, облачности и скорости ветра. Ночью, в пасмурную погоду, а также при ветре 12 м/с и более поправка равна нулю.
P - Атмосферное давление - приведенное к уровню моря атмосферное давление.
Po - Атмосферное давление - измеренное на уровне метеостанции атмосферное давление.
Tmin - Минимальная температура - минимум температуры воздуха на высоте 2 м над землей.
Tmax - Максимальная температура - максимум температуры воздуха на высоте 2 м над землей.
R - Количество осадков - Количество выпавших осадков за период времени, мм. При наведении курсора мыши на число - период времени, за который выпало указанное количество осадков.
R24 - Количество осадков - Количество выпавших осадков за 24 часа, мм.
S - Снежный покров - Высота снежного покрова, см. При наведении курсора мыши на число - состояние снежного покрова и степень покрытия местности в баллах.